C/2012 K1 ( PanSTARRS )

Japanese version
Home page
Updated on May 29, 2016

---------------------------------------------------------------------

* Profile

Discovery Date May 19, 2012
Magnitude 19.7 mag
Discoverer Pan-STARRS 1 telescope (Haleakala)

* Pictures

* Orbital Elements

Epoch 2014 Aug. 11.0 TT = JDT 2456880.5
T 2014 Aug. 27.65593 TT                                 MPCW
q   1.0545571            (2000.0)            P               Q
z  -0.0001533      Peri.  203.10572     -0.47153224     +0.78070396
                   Node   317.73805     +0.87390763     +0.47595535
e   1.0001617      Incl.  142.42839     +0.11807965     -0.40492942
From 7405 observations 2012 May 14-2015 Oct. 18, mean residual 0".6.
     Nongravitational parameters A1 = +1.82, A2 = +0.1086.

* Finding Charts

* Magnitudes Graph

        m1 = 5.5 + 5 log d +  8.5 log r(t + 15)  [  ,30]  (             - 2014 Sept.26)
        m1 = 5.8 + 5 log d + 10.0 log r          [30,  ]  (2014 Sept.26 -             )

---------------------------------------------------------------------

The orbital elements are published on M.P.E.C. 2015-U54.
The charts are made with StellaNavigator Ver.8 (AstroArts).
The magnitudes graphs are made with Comet for Windows.

---------------------------------------------------------------------

Copyright(C) Seiichi Yoshida (comet@aerith.net). All rights reserved.